STARLINK-32669, 62213

Orbit data source: Space-Track

STARLINK-32669, 62213 is a payload satellite owned by SpaceX/Seattle (US) in LEO that was launched on Wed, 04 Dec 2024 UTC via an FALCON 9 launch vehicle from the Air Force Eastern Test Range (AFETR). Payload-class satellites include a variety of spacecraft equipped with specific instruments for various scientific and technological missions. These include communications satellites like Starlink; space stations such as the ISS; scientific satellites like the Hubble; Earth observation satellites from companies like Planet Labs, Umbra, and HawkEye 360; GPS; miniature CubeSats for education and research; and military/defense satellites.

Loading next visibility...
Identifier
62213, 2024-229X
Orbit
LEO
Country
Flag of USUS
Related business
Manufacturer
SpaceX/Seattle
Mission
Operational Commercial Communications
Bus & Motor
STARLINK V2M, Unknown motor
Mass
730 kg wet, ~700 kg dry
Launch date (UTC)
2024-12-04 (2 years ago)
Launch vehicle
FALCON 9
Launch site
Air Force Eastern Test Range (AFETR)
Object type
Payload
Rocket body
Debris
Shape & HBR
Box + 2 Pan, 17.7 m
Radar Cross Section
33.884 m², Large (>1 m²)

Expand to show TLE details & history
Last TLE update: 11 hours ago

TLE from 11 hours ago
0 STARLINK-32669
1 62213U 24229X   26171.38389625  .00007196  00000-0  27073-3 0  9999
2 62213  43.0047  51.0436 0001146 256.2639 103.8085 15.27582755 86262
Epoch: 2026-06-20T09:12Z
TLE epoch observation values (Epoch: 2026-06-20T09:12:48.636Z)
Latitude
-0.00005°
Longitude
4.2416°
Altitude
483.005 km
Speed
7.626 km/s
True Right ascension
03h 24m 10s
True Declination
0° 00' 00"
Sunlit
Object was in daylight at epoch
Visualization orbit readout
Latitude
Unknown
Longitude
Unknown
Altitude
Unknown
Speed
Unknown
Apparent Right ascension
Unknown
Apparent Declination
Unknown
Sunlit
N/A
Visualization observer readout
Local Sidereal Time
07:17:37
Azimuth
Unknown
Elevation
Unknown
Doppler factor
Unknown
Orbital elements
Apogee altitude
485.772 km
Perigee altitude
484.199 km
Semi-major axis
6,863.122 km
Eccentricity
0.00011
Inclination
43.0047°
RAAN
51.0436°
Arg. of periapsis
256.2639°
True anomaly
103.82125°
Mean anomaly
103.8085°
Eccentric anomaly
103.81488°
Mean motion
3.81734 °/min
Orbital period
94.31 mins
BSTAR
0.00027073
Loading maneuver chart data...
Computing Atmospheric mass density...
Loading historical data...
Loading historical data...
Loading historical data...
Loading historical data...
Loading historical data...
Loading historical data...
Loading historical data...

Documentation

Showing up to 5 results
|